Weather in Agios Nikolaos

Greece     35°11′29″N   25°42′55″E
temp.,
°C
wind,
m/s
gust,
m/s
humid.,
%
clouds,
%
prec.,
mm/h
press.,
hPa
HPBL,
m
28 january, thu
thu2823:00+9w812560 0.0 10131310
02:00+8w69636 0.1 1013889
05:00+7w696790 0.3 1013822
08:00+8w467495 0.9 1014605
11:00+10w4558100 0.7 10141222
14:00+11wnw455498 1.0 10131442
17:00+10wnw796142 0.6 10131305
20:00+9nnw8106850 1.0 10141189
29 january, fri
fri2923:00+8nnw8106788 0.4 10161152
02:00+8nw785880 0.4 10171011
05:00+7wnw565110 0.0 1017788
08:00+7wsw345753 0.0 1017330
11:00+12wsw365571 0.0 10181035
14:00+13ssw135040 0.0 1016986
17:00+13ese22590 0.0 1015398
20:00+11ssw237250 0.0 1015239
30 january, sat
sat3023:00+13s6787100 0.0 1014303
02:00+13sw238476 0.1 1012156
05:00+13ssw448338 0.0 1009162
08:00+14ssw238255 0.0 1008135
11:00+18ssw5869100 0.1 1007802
14:00+18sw6116299 0.4 1005886
17:00+16wnw797229 1.2 1004477
20:00+13w8136915 1.4 1007636
31 january, sun
sun3123:00+13w811743 0.0 1010646
02:00+12w56752 0.1 1010328
05:00+12wsw33581 0.0 1010203
08:00+12ssw34588 0.0 1011139
11:00+16sse455538 0.0 1012565
14:00+17sse446121 0.0 1011574
17:00+16s67710 0.0 1010244
20:00+14s9128520 0.0 1010452
1 february, mon
mon123:00+15s81280100 0.0 1009382
02:00+15s6887100 0.1 1009222
05:00+14s5685100 0.0 1008264
08:00+14ssw568086 0.0 1009188
11:00+18s565910 0.0 1010749
14:00+18s445811 0.0 1010761
17:00+16ese127272 0.0 1010245
20:00+14e127786 0.1 1011237